TDRS 8

Last updated on Thu Nov 21 2024 00:02:35 GMT+0000 (Coordinated Universal Time)

1 26388U 00034A 24325.44719002 .00000093 00000+0 00000+0 0 9997 2 26388 11.7786 35.9716 0007087 211.4432 165.9670 1.00266287 89439
UTC large
Height (km)
Speed (km/s)
/
Latitude / Longitude
Inclination (degrees)
Orbital Period (minutes)
Azimuth
Elevation
Range (km)
Doppler Factor

Next 0 passes for location: London (51.5072 / 0.1276)

Sorry there are no passes over London.